Columbus Municipal Airport
KOLU : now visible

Airfield :











YOU CAN JOIN US ON...

 
LOGIN :

Register | Disclaimer

   EN    FR    IT 

 









Legend :    VFR   Marginal VFR   IFR   Intensive IFR   Very Intensive IFR
Visi :
Ceiling :
>= 8 km
>= 3000ft
5 to 8 km
1000 to 3000 ft
1500m to 5 km
500 to 1000 ft
800 to 1500m
200 to 500 ft
< 800m
< 200 ft
Symbols :   Thunderstorms  Fog  Heavy snow  Heavy precipitations  Wind > 20 kt






- Airport Elevation : 1447 ft


KOLU - Columbus Municipal

CURRENT METAR :
  • 180456Z AUTO 15017G23KT 10SM CLR 27/21 A2962 RMK AO2 PK WND 15026/0408 SLP020 T02670211

EXPIRED METARs :
  • 180356Z AUTO 16020G28KT 10SM CLR 27/22 A2963 RMK AO2 PK WND 16028/0349 SLP021 T02720217
  • 180256Z AUTO 16018G25KT 10SM CLR 28/22 A2961 RMK AO2 PK WND 17028/0201 SLP019 T02830217 53010
  • 180156Z AUTO 16018G25KT 10SM CLR 29/22 A2960 RMK AO2 PK WND 17031/0112 SLP013 T02890222
  • 180056Z AUTO 16020G29KT 10SM CLR 31/22 A2959 RMK AO2 PK WND 17029/0056 SLPNO T03060222

TAF N/A
KZMP FIR / North America



MET'MAP, your aeronautical weather chart ! - Copyright ORBIFLY December 2007 - Disclaimer

ORBIFLY MET'MAP TEAM :

Programming & Development : Alexandra Zaïnal
Original concept : Baudouin d'Aumeries
Technical & hardware support : Manuel Goepfert
Assistance : Marc-Olivier Méhu




SOURCES & CREDITS :

   NOAA       Earth
Advisory